SL-14 DEB, 45469

Orbit data source: Space-Track

SL-14 DEB, 45469 is space debris in LEO originally from a launch on Thu, 15 Aug 1991 UTC launched from the Plesetsk Missile And Space Complex (PKMTR). Debris objects in space refer to the collection of defunct objects orbiting the Earth. Examples of debris include non-operational satellites, rocket bodies, and fragments generated from explosions, collisions, or faulty payload assembly.

Loading next visibility...
Identifier
45469, 1991-056CU
Orbit
LEO
Country
Flag of CISCIS
Related business
Manufacturer
Unknown
Mission
Spacecraft
Bus & Motor
Unknown
Mass
Unknown
Launch date (UTC)
1991-08-15 (35 years ago)
Launch vehicle
Unknown
Launch site
Plesetsk Missile And Space Complex (PKMTR)
Object type
Payload
Rocket body
Debris
Shape & HBR
Unknown shape, 1.1 m
Radar Cross Section
Medium (>0.1 m² and <1 m²)

Expand to show TLE details & history
Last TLE update: 3 days ago

TLE from 3 days ago
0 SL-14 DEB
1 45469U 91056CU  26170.74106499  .00001236  00000-0  20876-2 0  9992
2 45469  82.5464  69.0912 0098538 187.2320 172.7403 13.42943239305789
Epoch: 2026-06-19T17:47Z
TLE epoch observation values (Epoch: 2026-06-19T17:47:08.015Z)
Latitude
0.00004°
Longitude
-105.65788°
Altitude
1,174.286 km
Speed
7.231 km/s
True Right ascension
04h 36m 21s
True Declination
0° 00' 00"
Sunlit
Object was in daylight at epoch
Visualization orbit readout
Latitude
Unknown
Longitude
Unknown
Altitude
Unknown
Speed
Unknown
Apparent Right ascension
Unknown
Apparent Declination
Unknown
Sunlit
N/A
Visualization observer readout
Local Sidereal Time
21:41:11
Azimuth
Unknown
Elevation
Unknown
Doppler factor
Unknown
Orbital elements
Apogee altitude
1,169.188 km
Perigee altitude
1,021.9 km
Semi-major axis
7,473.681 km
Eccentricity
0.00985
Inclination
82.5464°
RAAN
69.0912°
Arg. of periapsis
187.232°
True anomaly
172.88127°
Mean anomaly
172.7403°
Eccentric anomaly
172.81095°
Mean motion
3.35924 °/min
Orbital period
107.17 mins
BSTAR
0.0020876
Loading maneuver chart data...
Computing Atmospheric mass density...
Loading historical data...
Loading historical data...
Loading historical data...
Loading historical data...
Loading historical data...
Loading historical data...
Loading historical data...

Documentation

Showing up to 5 results
|